Theta_e
302 295 294 294 297 299 302 303 304 305 312 315 313 314 314 315 317 322 324 328 328 320 318 320 319 319 322 324 328 332 335 334 333 331 332 332 331 329 330 331 332 333 335 341 339 340 341 343 344 345 346 346 347 347 347 345 344 345 345 346 345 345 345 346 345 342 342 342 342 343 343 344 346 348 350 351 352 355 356 359 361 361 362 363 366 367
303 295 295 298 301 303 304 305 305 306 309 314 312 313 312 316 312 320 321 328 328 319 316 319 319 319 322 324 326 332 332 330 331 331 331 332 332 329 330 331 332 333 337 338 337 339 341 341 343 344 345 347 343 343 343 342 343 343 344 344 343 344 345 346 343 343 344 344 343 342 342 343 346 349 347 348 351 354 358 359 360 362 361 362 363 365
295 293 298 301 303 304 304 305 306 305 312 311 309 312 312 312 319 322 325 328 328 322 312 319 316 316 319 322 325 331 330 329 332 332 332 332 331 329 330 331 332 332 333 335 336 338 339 341 342 343 344 344 344 342 341 342 342 342 343 343 344 344 346 346 344 344 345 347 348 346 346 345 347 350 350 350 354 357 357 359 361 362 361 361 361 363
295 295 300 303 303 303 303 304 303 302 301 305 311 310 308 315 313 307 318 325 326 321 314 317 316 314 318 323 326 328 331 331 332 334 333 334 333 330 330 331 332 332 332 333 334 336 338 339 341 342 342 343 343 341 340 341 341 343 345 343 344 344 346 347 349 350 348 348 348 349 348 348 348 347 354 353 355 355 356 358 362 361 360 361 361 363
295 300 304 303 303 303 303 301 300 298 297 300 313 312 311 315 314 313 315 323 325 326 323 317 312 310 313 316 319 325 329 328 330 334 334 336 339 336 335 333 333 332 332 333 333 335 336 338 340 341 342 343 341 339 340 341 341 344 344 344 344 344 346 347 355 350 350 352 348 350 352 353 351 352 349 348 350 352 357 358 359 359 361 362 361 360
298 303 305 302 302 302 299 296 299 300 294 294 304 315 316 317 316 317 320 320 314 310 318 316 299 300 309 315 317 319 323 324 328 331 332 333 335 336 332 331 333 334 334 334 333 335 336 338 340 340 341 341 340 339 341 342 342 345 345 345 344 345 346 347 352 350 354 350 345 346 346 343 343 343 344 343 346 349 354 355 359 361 362 361 360 359
298 302 302 300 299 298 298 299 300 299 293 295 295 310 318 319 318 319 319 314 303 302 313 318 300 294 303 310 314 317 320 322 325 328 331 333 333 335 332 330 332 334 333 336 335 335 336 337 339 340 340 341 340 340 342 342 342 346 345 345 345 345 345 348 351 350 354 346 346 346 345 344 343 342 344 346 349 351 354 355 356 358 359 359 359 359
301 301 300 301 301 302 296 296 297 299 292 292 296 307 319 318 319 319 319 314 306 314 316 317 304 298 298 304 313 318 319 320 322 325 329 331 332 334 334 332 332 334 334 334 335 334 336 337 338 339 340 341 341 342 343 342 343 346 346 345 345 346 348 347 352 352 352 347 346 346 345 346 345 345 345 347 348 352 355 352 354 355 356 357 358 358
300 298 299 300 298 295 293 296 297 300 294 294 299 304 316 319 320 319 317 311 308 308 302 309 312 300 299 304 316 318 315 316 319 323 326 330 331 333 335 334 332 334 335 335 335 334 335 336 338 340 340 342 342 343 343 343 344 346 347 346 346 346 347 346 354 353 352 352 349 347 347 348 348 347 347 350 354 352 356 351 352 353 354 355 358 359
304 302 301 299 296 294 296 297 298 300 297 299 302 301 308 315 321 319 314 306 305 296 295 304 309 298 295 303 311 316 313 314 318 322 326 330 331 332 334 336 333 334 335 335 336 336 335 337 338 341 342 342 342 343 344 344 345 346 347 346 347 345 346 347 353 354 352 353 354 349 347 347 346 350 348 349 349 349 352 349 349 352 353 355 358 359
301 317 312 303 298 298 299 300 300 299 298 303 299 296 295 297 311 309 302 298 294 291 290 303 310 303 293 299 311 312 313 317 319 322 327 330 332 333 334 336 334 333 335 335 336 337 336 337 339 341 340 341 342 343 344 344 345 345 346 346 346 346 346 348 353 352 352 353 353 350 348 347 346 348 348 347 348 348 350 349 349 350 352 354 356 358
303 304 304 304 307 307 301 302 302 303 303 302 300 293 291 292 294 292 296 296 291 286 293 304 311 306 293 298 308 319 322 323 322 322 325 328 331 332 333 335 335 333 334 336 336 336 337 336 338 340 340 340 341 342 342 343 345 345 345 345 345 346 346 347 352 351 351 351 352 351 351 345 347 347 347 347 347 349 349 350 350 350 352 353 354 355
299 298 301 305 313 304 303 298 296 298 297 297 295 293 289 284 288 284 289 289 287 286 298 309 308 303 299 302 311 316 320 323 325 326 327 328 330 332 334 335 335 333 335 335 335 336 336 335 336 338 339 339 339 340 341 343 345 345 345 345 344 345 347 346 352 350 350 350 350 350 351 347 348 347 347 347 348 351 350 351 351 351 350 352 351 352
295 302 302 303 304 308 302 295 293 293 295 295 294 292 286 284 284 281 284 288 291 302 309 308 310 300 303 309 314 317 321 325 326 328 330 330 331 332 334 335 335 332 334 335 336 336 336 336 336 337 338 339 339 340 341 343 345 345 346 345 344 346 348 347 351 350 350 350 350 350 351 349 352 349 349 348 350 352 351 353 351 352 351 353 353 352
288 289 296 301 297 304 302 297 296 296 298 300 300 296 291 290 289 285 287 285 289 293 302 310 302 297 298 305 316 320 323 326 328 329 330 331 333 333 335 335 335 331 333 336 336 336 336 336 336 336 337 338 338 339 340 344 345 345 346 345 344 345 348 347 350 350 350 350 350 350 350 351 353 351 353 352 353 353 352 354 354 354 354 354 354 353
296 291 297 304 302 304 304 305 304 301 299 301 301 302 299 297 297 290 290 290 293 296 299 300 298 303 304 313 323 323 324 325 327 327 330 329 331 332 332 333 334 332 332 335 336 336 336 337 337 337 337 337 338 339 339 344 345 345 346 346 345 345 348 347 350 350 350 350 351 350 349 351 355 356 355 356 357 355 355 354 355 354 354 355 355 356
294 293 303 304 306 302 302 307 307 304 293 299 300 297 299 303 302 296 300 302 299 291 292 301 303 306 311 313 320 319 322 323 325 326 328 329 331 330 331 332 333 333 330 334 335 335 336 337 338 338 337 337 337 337 339 343 345 345 346 346 345 345 349 348 350 350 351 350 350 350 350 351 354 354 353 355 356 355 355 355 354 354 355 356 355 355
292 292 298 303 301 305 307 308 308 307 304 300 297 299 306 308 305 298 291 291 290 288 290 301 298 299 299 297 316 317 317 320 321 325 328 327 330 329 330 331 332 333 334 333 335 337 338 340 338 338 338 338 337 337 339 343 345 346 347 347 346 346 347 349 349 350 350 350 351 350 350 350 353 354 354 354 356 357 355 354 354 355 355 355 356 357
295 289 293 300 303 307 310 307 306 309 309 303 301 310 300 295 292 297 295 288 288 286 288 294 301 300 300 302 313 313 316 318 320 322 324 326 328 329 330 332 333 334 334 338 333 334 335 336 338 339 338 340 338 338 340 344 346 346 347 348 348 346 348 350 350 350 351 351 352 352 352 351 352 353 354 354 356 355 354 353 353 353 355 356 355 357
297 289 291 298 300 302 302 301 295 301 307 308 308 304 306 301 297 294 297 295 292 288 289 289 296 294 306 309 315 314 317 319 321 321 322 324 325 327 330 332 332 332 333 336 335 333 335 336 338 340 339 339 339 337 339 343 345 346 346 348 348 348 349 351 351 351 350 351 351 352 352 352 351 352 353 353 353 353 352 352 352 353 354 355 356 355
296 295 289 294 300 300 294 298 298 300 299 300 300 299 302 303 306 302 302 297 292 289 288 288 287 295 304 316 317 318 319 321 322 321 322 325 327 327 328 330 332 332 332 336 337 337 336 336 338 340 341 340 340 340 341 343 344 346 346 347 349 347 348 350 352 351 351 351 351 352 351 351 351 351 352 352 351 351 351 351 353 352 353 355 354 355
297 294 293 292 293 292 295 301 303 305 303 301 299 297 298 297 297 293 291 303 301 291 287 288 287 295 308 323 321 319 322 324 324 322 322 325 327 327 329 331 332 332 334 335 337 339 338 337 338 339 339 341 340 340 340 343 344 345 346 347 349 349 348 350 352 352 352 352 352 351 351 351 351 351 351 351 350 350 351 351 351 352 353 352 352 354
300 298 294 292 294 296 299 306 309 309 306 304 303 302 304 303 299 292 287 292 302 302 302 295 291 294 310 319 321 322 324 325 326 326 325 326 326 327 329 332 334 333 334 336 335 337 341 340 338 337 339 338 340 340 341 342 344 345 346 347 348 349 348 350 352 353 353 352 351 351 351 351 350 351 350 350 350 350 350 351 351 352 352 351 351 352
321 295 292 294 297 300 302 304 307 308 308 306 306 305 304 301 302 298 293 298 296 300 295 296 292 296 308 319 321 321 323 325 327 327 325 325 326 327 329 333 333 333 336 337 335 338 338 338 339 336 337 337 339 339 341 341 344 346 347 347 348 349 350 350 351 352 352 351 351 351 350 350 350 350 350 349 349 349 350 351 351 352 352 352 351 350
296 297 293 289 286 289 293 297 298 302 304 302 302 305 304 305 307 306 304 300 296 298 299 292 288 294 305 320 321 322 322 322 324 327 326 323 324 326 329 332 333 333 332 332 334 336 337 336 338 339 336 336 339 340 340 341 343 346 347 348 348 350 351 351 352 351 351 351 350 351 350 349 350 350 349 349 349 349 349 349 350 351 352 352 351 350
296 298 293 286 284 284 286 286 288 291 295 301 308 308 306 307 306 302 298 296 288 297 300 294 293 299 306 313 315 316 316 316 319 324 326 325 325 326 328 330 329 329 329 329 332 334 335 336 336 337 339 337 338 339 341 340 343 345 346 348 349 349 350 351 351 350 350 350 350 350 349 349 350 350 349 349 349 349 349 349 349 349 351 352 351 351
300 301 296 291 287 286 288 292 297 305 297 295 300 304 304 307 308 305 299 294 291 295 297 297 298 298 303 307 309 314 317 315 315 321 321 321 323 324 324 327 329 328 328 330 331 334 336 336 335 336 339 339 338 339 340 341 342 344 345 347 349 350 350 350 350 349 349 349 349 349 349 349 349 350 350 350 350 349 349 349 350 350 349 351 351 349
297 294 296 297 296 295 296 297 299 304 296 297 296 301 303 305 306 303 299 294 298 297 290 298 302 302 302 307 309 312 315 316 320 321 322 320 322 323 323 326 333 329 330 331 332 333 334 334 335 336 337 337 340 340 340 340 340 342 344 345 347 349 350 350 349 348 348 348 348 348 348 348 349 350 350 350 350 350 349 349 348 348 349 351 349 350
294 291 295 297 295 297 297 297 298 300 300 299 298 299 301 305 304 302 300 303 302 295 293 298 304 302 304 309 312 313 314 317 321 323 324 324 323 323 322 322 323 325 328 330 329 332 335 334 335 336 338 339 339 339 340 340 341 343 343 344 343 344 348 349 349 348 347 346 346 347 348 348 348 349 350 351 350 350 349 349 348 346 348 349 349 351
297 293 297 297 297 297 297 298 298 297 299 297 297 299 303 304 304 304 303 305 304 301 301 305 306 305 309 311 314 320 322 322 321 323 324 322 322 322 322 321 322 325 326 327 331 333 335 337 337 338 338 338 337 338 340 340 340 342 342 342 343 344 344 345 346 348 347 346 345 347 347 347 348 348 348 349 349 349 349 350 350 347 346 348 348 348
297 295 310 299 297 296 298 300 298 297 297 296 297 296 300 304 304 304 305 307 307 305 308 309 307 306 314 318 320 322 321 322 320 320 322 322 323 323 320 322 323 325 328 328 330 332 333 335 337 337 337 336 336 337 339 340 341 342 343 343 344 344 344 344 343 343 345 345 346 346 347 347 348 350 350 352 350 348 349 350 355 352 352 349 347 346
299 295 301 296 291 292 296 297 297 299 297 297 299 300 299 298 299 302 300 304 303 302 305 306 303 306 312 320 321 320 319 319 319 319 320 322 324 322 321 323 325 327 329 330 331 332 331 334 335 336 336 337 337 337 339 340 342 343 343 343 343 344 344 343 341 341 342 343 344 344 345 347 348 349 351 353 356 354 352 353 354 353 353 350 347 348
298 296 294 293 289 292 296 298 300 298 294 292 295 301 304 302 302 304 306 310 307 306 301 299 299 308 317 322 318 317 319 320 319 320 318 320 320 320 320 322 325 327 328 329 330 333 333 334 334 334 335 338 338 338 341 343 342 341 343 343 344 345 345 342 341 341 341 342 343 343 343 343 347 348 351 351 353 357 356 354 353 352 351 347 347 348
301 297 294 294 289 289 296 298 297 290 285 287 298 304 305 301 304 305 306 310 312 308 303 304 307 316 320 318 317 316 318 317 318 318 321 320 318 319 322 325 328 330 328 328 330 330 330 331 332 335 337 338 339 342 343 345 343 343 345 345 345 345 344 342 341 341 341 342 343 343 344 345 345 349 353 355 355 355 354 353 352 352 352 350 348 346
300 297 293 295 289 290 294 294 290 285 286 296 306 310 308 313 313 311 311 313 315 316 318 318 318 319 320 320 319 319 318 318 321 322 324 325 324 322 323 326 328 328 327 327 328 330 330 330 330 330 333 336 340 342 344 343 344 344 344 343 343 344 344 343 341 340 340 342 343 343 343 345 348 350 353 355 355 354 352 350 349 351 353 350 346 345
296 295 296 295 292 291 290 289 283 285 295 302 304 309 310 312 312 310 308 311 313 316 316 316 317 318 319 318 318 318 318 321 320 324 326 327 326 324 323 322 323 325 325 327 328 329 329 329 329 330 330 336 337 339 341 341 342 343 343 343 344 343 343 342 341 340 341 342 342 343 343 345 347 350 349 347 346 347 347 348 350 352 352 350 345 345
300 298 293 291 295 288 287 287 288 295 296 298 301 305 303 301 303 303 299 305 312 316 317 317 317 318 318 318 318 319 320 320 316 315 323 325 325 325 324 323 326 326 326 327 331 332 331 333 333 335 336 336 336 336 337 340 342 342 341 341 343 343 342 342 341 340 341 342 341 342 343 344 345 346 345 344 344 344 344 346 346 346 346 346 344 343
302 298 295 292 292 291 288 287 286 286 285 291 300 306 307 308 310 311 306 303 311 318 321 319 317 317 316 318 317 318 319 314 310 310 319 325 326 326 327 328 329 328 328 327 329 330 332 335 336 336 332 331 332 334 335 338 341 342 341 341 340 340 340 340 340 341 342 341 342 341 341 343 344 344 343 342 343 343 344 344 343 341 344 341 341 341
303 302 298 294 291 290 288 284 284 285 288 296 303 308 309 312 313 310 304 298 306 314 321 320 318 318 318 317 314 315 312 306 306 310 319 324 326 327 325 327 330 329 328 327 328 329 332 333 334 334 333 330 330 332 333 334 339 340 340 341 341 340 340 340 340 341 341 341 342 341 341 342 343 343 343 344 345 346 345 344 341 342 343 341 340 335
300 297 296 293 292 292 288 286 285 291 293 303 307 308 309 309 306 297 289 291 304 312 319 319 316 317 316 315 315 312 310 305 308 313 319 324 324 324 324 325 327 327 328 329 330 332 332 332 331 330 329 329 329 331 332 334 338 339 339 339 340 339 340 340 340 339 339 341 341 341 342 342 343 343 343 342 343 344 344 344 342 340 339 337 333 327
298 298 293 290 291 295 295 288 289 292 305 309 310 311 311 313 302 291 284 293 306 312 319 319 317 318 317 316 315 313 315 316 316 320 325 326 325 325 327 328 327 329 329 330 330 331 329 329 328 327 328 328 329 331 333 336 339 338 338 338 338 338 339 340 340 339 339 339 339 339 338 338 338 337 338 338 338 338 338 338 336 334 331 328 326 325
297 297 297 295 292 290 290 288 288 292 301 308 310 313 313 307 294 291 299 307 311 313 315 319 319 319 318 317 315 316 317 321 325 326 326 327 327 328 328 328 328 329 329 330 330 328 326 326 325 326 327 327 328 330 332 334 336 336 337 336 335 337 339 339 339 339 338 337 336 335 335 335 335 336 336 337 336 335 334 334 333 330 328 326 325 324
296 294 291 291 294 293 293 290 287 285 301 311 311 310 312 300 297 302 309 314 317 316 319 320 321 322 321 318 320 320 320 321 323 324 325 327 328 327 327 327 327 327 326 325 325 327 325 323 324 326 326 327 327 329 330 333 334 334 335 334 335 338 339 339 339 338 336 336 335 335 335 335 335 335 335 334 334 332 331 331 330 328 327 324 323 323
303 294 292 293 297 289 291 291 290 293 299 313 309 301 307 309 310 312 313 313 318 318 319 319 319 322 323 322 321 319 319 320 320 323 324 326 327 327 327 327 327 326 326 326 326 325 325 323 324 325 326 326 326 327 327 329 331 332 332 332 336 336 337 336 336 336 335 334 333 333 334 334 333 333 333 333 332 331 329 328 328 328 327 326 326 325
303 300 297 293 302 297 296 298 301 304 307 309 312 310 313 317 319 316 314 316 317 318 318 319 321 321 322 323 321 319 318 318 320 321 322 324 324 324 326 325 324 324 324 324 323 325 324 322 322 323 323 324 324 324 324 325 328 330 330 333 335 335 335 335 335 334 333 332 332 332 332 332 332 332 332 332 332 330 329 328 328 326 326 326 324 323
310 311 307 303 303 308 310 309 313 311 312 314 316 316 316 316 318 317 318 316 318 317 319 319 321 321 322 322 320 317 318 319 320 321 322 323 323 323 324 323 322 323 323 323 323 323 322 322 322 321 321 322 323 322 323 323 323 324 326 332 334 334 334 333 332 331 331 331 331 332 333 332 333 333 333 333 332 331 330 329 329 327 327 327 325 325
308 310 303 299 306 300 294 310 310 311 314 317 318 320 320 319 319 318 317 317 319 321 321 321 322 322 323 322 320 318 318 319 319 320 322 323 322 320 318 317 317 318 319 318 319 319 318 319 319 318 319 318 320 320 321 321 322 323 325 327 330 331 331 330 328 327 324 323 323 324 323 322 321 320 321 321 323 324 325 327 330 332 332 330 327 326
299 307 302 304 301 296 298 308 314 316 315 316 317 318 318 319 320 320 319 321 322 322 321 322 323 322 322 320 319 319 319 319 320 320 320 320 318 316 315 315 315 316 317 317 317 317 316 316 316 317 317 317 318 319 320 320 321 322 323 324 326 327 326 325 324 322 321 321 322 322 322 322 324 319 316 316 316 316 317 316 317 318 318 322 324 321
304 309 298 303 300 304 312 315 315 315 315 315 316 315 316 317 318 320 322 323 323 321 321 323 323 323 322 321 321 321 320 319 321 321 320 318 316 315 314 314 314 315 315 315 316 317 315 315 316 316 316 315 315 316 317 318 320 322 323 324 323 323 323 323 325 322 320 320 320 320 322 319 318 317 314 313 311 309 311 313 315 315 314 314 315 319
305 301 305 302 299 301 303 307 309 305 304 310 316 319 321 321 321 322 322 323 322 321 321 322 322 322 321 321 322 322 320 319 319 319 318 317 315 315 315 316 315 315 316 318 320 319 320 317 314 313 314 314 316 317 317 319 322 324 326 327 326 323 321 320 318 317 316 317 318 317 318 316 316 315 315 312 311 311 311 311 303 307 315 315 317 311
305 308 304 300 297 299 305 310 309 309 310 311 317 320 322 324 324 323 322 322 323 321 322 323 321 318 319 319 322 322 319 319 319 320 318 316 316 317 318 318 317 317 318 322 323 321 320 320 320 319 318 319 321 320 320 319 320 321 324 325 327 325 322 319 318 317 317 317 316 317 316 315 313 313 312 311 311 312 312 310 310 300 300 307 308 303
Wind_Speed
3 2 2 5 8 9 9 8 9 10 8 6 4 5 8 6 1 1 2 5 6 5 5 7 4 4 6 6 5 3 3 2 4 4 2 1 3 7 8 8 10 8 6 5 5 14 13 13 12 11 11 10 11 10 10 10 9 9 9 9 8 6 5 6 6 4 5 4 4 3 5 5 5 6 4 4 3 4 4 3 3 3 3 3 2 1
4 1 7 10 12 13 12 8 6 6 12 8 7 7 4 0 7 2 3 6 5 3 3 4 4 6 7 5 4 3 4 5 6 5 4 3 3 4 7 10 9 12 7 9 10 12 13 11 12 11 10 11 12 9 11 10 11 9 9 9 8 6 6 7 8 6 5 4 5 4 4 5 5 6 6 4 4 4 3 3 3 3 3 3 3 2
3 7 11 12 10 5 5 8 12 8 10 6 7 6 6 1 2 4 3 6 6 1 2 4 4 5 4 4 3 4 5 2 4 6 4 5 4 3 5 8 10 12 12 12 6 12 12 14 13 11 10 10 9 9 12 11 11 9 9 8 6 7 6 6 7 6 5 3 3 4 3 5 3 0 3 5 4 3 4 3 3 3 3 3 2 2
2 7 14 12 7 9 11 7 4 3 5 8 7 7 8 9 9 2 2 4 4 3 2 4 4 3 3 3 3 3 3 0 2 3 4 5 6 5 8 9 10 14 12 11 9 13 13 13 12 11 11 11 8 8 8 10 11 9 8 7 7 6 5 4 4 4 4 5 4 4 7 4 3 4 2 2 3 3 3 3 3 3 3 3 3 2
10 11 8 8 8 4 1 2 5 4 5 2 10 3 5 8 2 4 7 5 2 2 4 5 2 4 3 3 3 4 2 1 1 3 3 3 3 4 3 8 8 13 13 12 9 13 13 13 13 13 11 11 9 9 9 10 10 8 10 8 8 6 5 4 4 4 4 4 4 4 4 3 3 3 2 2 1 3 3 3 3 4 3 3 3 3
10 12 3 4 5 1 3 3 1 2 1 4 2 8 11 9 7 4 9 9 3 3 3 8 1 3 3 6 7 3 1 4 3 4 6 6 4 4 4 7 6 7 10 15 12 14 13 13 12 12 12 12 10 10 9 10 9 9 9 8 8 6 5 4 4 4 5 5 5 5 6 5 3 4 4 5 5 4 4 5 3 3 4 4 3 3
8 6 2 3 5 3 3 1 3 3 2 1 4 5 10 13 8 12 11 5 2 4 6 4 3 3 2 4 6 4 4 8 3 5 6 6 6 5 5 5 9 8 7 10 10 12 13 12 13 12 13 13 11 10 9 9 8 10 9 9 9 7 5 4 4 5 5 6 5 6 6 5 6 6 4 3 3 5 4 3 4 4 3 3 4 3
2 6 2 1 1 0 1 1 2 3 4 1 4 8 12 10 9 14 14 7 5 3 1 4 2 1 3 5 3 5 6 6 6 7 6 6 7 6 6 6 8 10 8 8 10 11 13 14 14 14 14 13 12 10 9 9 9 10 10 9 9 7 6 4 4 5 6 7 6 6 5 5 6 7 7 5 4 4 3 4 5 4 4 3 3 4
2 2 1 1 1 1 3 4 4 1 3 3 4 6 12 15 11 12 12 9 4 7 3 7 2 1 3 2 1 7 5 5 10 10 10 8 8 8 8 8 7 11 10 9 10 10 14 14 13 14 13 12 13 11 10 10 9 9 9 9 8 9 7 6 5 6 6 7 7 7 6 6 5 6 6 5 3 5 4 5 3 4 4 3 3 3
1 2 5 6 4 4 4 1 2 3 1 2 2 4 6 5 9 14 10 5 1 3 4 7 5 3 4 2 2 0 2 7 10 12 11 10 10 10 9 9 7 8 9 9 10 10 12 13 13 14 13 13 12 11 10 9 9 9 9 9 9 9 7 6 5 6 6 6 6 6 6 7 6 5 4 4 4 5 3 5 4 3 4 4 3 3
4 2 5 5 5 5 2 3 3 4 6 2 5 4 2 6 8 4 2 3 3 2 5 9 9 5 2 4 5 7 7 9 8 4 6 7 8 9 9 10 9 8 10 9 9 9 10 12 13 13 14 14 12 11 11 10 10 10 10 9 9 10 7 7 7 6 7 6 5 6 6 6 7 6 6 6 5 4 3 5 5 4 5 3 4 4
3 1 1 1 5 1 3 1 3 1 2 2 2 2 4 3 3 4 1 2 1 4 5 3 7 4 3 3 3 6 3 2 8 9 11 12 12 11 9 9 9 9 10 11 10 9 8 10 12 13 14 14 13 12 12 10 11 11 10 9 9 8 8 8 7 7 6 6 5 5 5 6 6 7 7 8 8 6 6 6 6 5 4 4 4 3
2 5 2 2 2 6 0 1 5 6 7 7 4 5 3 2 3 2 2 1 4 3 3 2 5 2 2 4 6 7 9 3 4 6 10 13 13 12 11 10 9 9 11 11 11 10 9 11 13 14 14 13 13 13 13 12 12 12 11 11 10 9 8 9 8 8 7 6 6 6 5 5 5 7 8 8 7 6 7 6 5 5 5 4 4 5
6 1 2 2 4 1 4 4 1 3 6 6 1 2 5 2 1 1 2 1 2 1 2 4 2 1 2 3 3 5 4 4 8 9 8 10 12 13 12 11 10 10 11 12 12 12 11 11 12 14 13 13 13 14 13 13 12 11 11 12 12 10 9 8 8 9 8 8 7 5 5 5 5 7 8 7 7 7 6 6 6 6 6 6 6 6
6 2 3 4 2 2 3 4 6 5 4 1 2 5 6 5 2 1 0 1 1 3 2 3 1 1 1 1 4 5 5 6 4 5 7 8 10 11 10 9 10 10 11 12 12 12 13 13 12 13 13 13 13 14 13 13 12 12 12 12 13 10 9 9 9 8 9 8 7 5 5 5 4 7 6 7 6 7 6 6 6 6 5 6 6 6
1 5 6 5 2 4 3 3 5 6 5 2 3 5 6 1 5 2 3 3 2 1 1 1 1 2 3 1 1 2 3 4 4 4 1 4 3 4 6 9 9 8 10 12 12 13 13 13 12 12 12 13 12 14 12 14 13 13 13 13 14 13 11 11 10 9 9 8 6 5 6 5 5 5 5 5 5 6 6 6 6 6 6 6 6 5
4 4 0 5 2 4 4 1 1 5 1 3 3 1 3 5 5 2 1 2 2 4 1 1 1 2 3 0 1 3 5 5 3 2 2 3 3 4 6 7 7 5 6 9 11 11 13 11 13 11 13 11 12 14 13 14 14 15 13 13 14 13 11 11 10 10 9 8 7 6 6 5 5 6 6 6 6 6 5 5 6 6 7 6 5 5
2 5 3 1 2 1 1 3 2 1 7 4 5 5 1 2 5 3 1 2 2 1 2 1 4 1 1 1 5 6 6 5 3 2 0 0 1 5 4 5 6 5 2 7 10 7 9 1 8 10 11 12 12 13 13 15 15 14 14 14 15 13 13 11 11 10 9 9 8 7 7 6 6 6 6 6 6 5 5 5 5 5 5 6 6 6
3 3 3 3 4 1 0 6 8 6 2 8 6 5 5 1 2 4 3 1 1 1 1 2 0 1 2 2 6 5 4 6 6 6 2 0 2 5 4 4 4 5 5 1 5 9 12 15 8 7 11 11 12 12 12 14 15 13 13 14 15 15 14 13 11 10 9 9 8 7 8 7 6 5 6 5 5 5 5 6 6 6 6 6 6 6
4 2 3 4 5 2 3 4 2 1 6 5 4 4 1 7 2 2 1 2 4 1 2 2 0 2 1 1 2 4 3 2 3 5 3 3 3 2 2 4 4 4 6 5 5 8 12 13 12 7 8 12 11 11 11 14 13 15 15 14 13 13 13 12 11 10 10 10 9 8 7 7 6 5 6 6 6 6 6 6 6 6 6 7 7 7
1 2 1 4 6 5 2 0 5 6 6 3 5 2 0 2 1 6 3 2 3 3 2 1 2 1 4 3 2 2 3 1 0 3 4 5 6 5 5 5 3 3 6 5 7 7 12 14 12 10 5 6 10 11 11 13 15 15 13 14 14 14 14 14 13 11 10 9 9 9 9 8 7 8 6 6 6 7 7 6 6 6 6 5 6 7
2 2 1 3 6 4 4 2 4 5 8 6 6 5 7 4 2 1 1 3 1 3 2 2 3 4 5 1 2 2 2 0 1 1 1 4 4 4 6 7 7 6 3 6 6 6 6 12 10 9 10 2 5 10 12 13 13 14 14 13 13 13 13 14 12 11 11 9 9 10 9 9 8 8 7 8 8 8 8 8 7 7 6 6 7 7
2 2 3 2 1 2 2 2 6 6 3 5 6 2 3 4 6 5 2 2 0 1 3 3 2 4 4 2 4 4 2 1 3 3 0 1 1 4 5 4 4 5 6 3 5 6 3 3 3 11 12 8 2 6 13 14 13 14 14 13 12 13 13 13 13 11 10 9 10 10 9 9 9 8 8 9 8 9 9 8 8 7 8 8 7 6
3 2 3 4 5 6 5 1 5 6 7 5 4 3 5 4 5 6 3 5 4 2 1 1 1 4 3 4 4 2 3 3 2 5 3 0 1 2 3 3 3 3 5 5 2 3 4 3 6 4 9 8 6 5 9 13 14 13 13 13 13 14 14 12 11 10 10 10 10 10 9 9 9 10 10 10 9 9 8 8 8 7 8 8 8 7
1 1 4 1 2 5 5 4 5 7 4 1 2 2 4 4 5 3 4 2 3 3 4 4 2 2 3 1 1 2 4 4 2 2 4 1 2 2 2 1 0 0 2 5 5 6 5 7 8 4 8 9 8 8 8 11 12 14 14 13 13 12 12 12 11 11 10 11 11 11 11 10 10 11 11 11 9 9 8 8 8 7 7 7 7 7
4 2 2 2 1 3 1 0 2 3 2 1 0 1 4 10 10 6 2 0 3 2 4 2 3 6 5 2 1 2 4 5 3 3 2 2 2 3 2 3 3 1 1 1 4 9 9 9 11 7 3 8 9 10 6 6 12 13 13 15 13 12 11 12 10 11 11 11 11 11 12 11 10 11 12 11 10 10 9 7 7 7 7 8 8 7
2 1 4 6 6 6 6 5 6 1 2 1 3 5 5 7 6 6 5 4 4 4 5 6 5 2 3 5 3 4 3 5 4 2 2 2 2 2 2 1 2 3 2 2 2 5 9 9 4 8 9 5 10 9 9 4 2 10 13 14 12 12 13 13 11 11 12 11 12 11 12 12 11 11 11 11 10 9 8 8 8 8 8 7 8 4
2 1 2 6 7 7 8 5 5 4 4 4 3 6 6 8 8 9 8 5 5 8 3 4 5 4 6 5 5 5 4 4 3 2 0 1 2 2 2 2 5 5 4 1 3 5 5 7 8 2 5 12 10 6 8 6 7 5 5 4 4 9 12 11 12 12 12 12 12 12 12 11 10 10 10 10 10 9 9 8 8 7 7 7 4 7
4 1 3 2 3 3 4 6 4 1 2 4 5 5 8 9 8 8 7 4 11 7 7 6 7 6 5 6 5 5 4 4 5 4 2 2 2 1 0 2 3 4 4 3 3 3 3 1 5 10 6 1 8 8 8 9 8 5 5 6 6 4 0 3 11 12 12 12 12 12 11 10 9 8 9 10 10 9 8 8 8 8 9 6 6 6
4 1 3 4 1 2 4 4 3 4 4 7 5 2 7 11 11 12 6 8 11 6 7 7 10 8 2 3 2 2 3 4 3 1 0 0 2 2 1 0 2 4 5 2 2 4 6 6 1 1 8 8 1 8 7 4 8 8 8 7 6 4 3 5 3 4 11 11 12 10 10 10 8 8 9 9 9 9 8 8 7 7 5 5 8 7
4 2 3 1 1 2 3 4 5 5 4 4 7 5 10 10 8 5 3 5 7 1 2 3 5 1 1 0 1 2 2 0 1 3 3 3 2 1 1 1 1 4 5 3 1 3 5 6 8 5 1 5 8 2 5 7 4 8 8 8 8 8 7 7 6 7 2 1 0 2 6 6 5 6 9 8 8 7 7 5 5 5 5 6 6 6
2 1 2 2 2 5 3 3 5 4 3 4 3 7 2 8 3 1 3 4 5 1 3 6 3 3 2 2 1 2 2 3 5 5 4 2 0 1 2 1 2 3 4 4 2 0 3 5 5 5 7 6 5 9 8 6 6 7 9 8 9 8 7 9 9 8 5 3 6 5 2 6 6 4 2 3 7 7 7 6 6 6 6 8 7 6
3 4 3 2 3 2 4 2 0 1 4 5 3 0 1 3 4 5 5 5 1 9 8 6 5 5 7 5 4 3 4 5 5 4 3 3 2 1 0 1 3 4 3 3 3 2 2 3 3 3 3 4 7 6 5 7 6 7 8 10 10 10 9 10 10 10 10 8 7 8 5 3 6 5 5 2 2 6 6 8 7 7 7 9 9 8
3 5 3 2 1 2 3 3 2 4 2 3 3 3 3 5 8 9 4 3 4 3 2 3 4 5 7 4 6 5 7 4 3 2 1 1 2 3 3 2 3 2 2 3 4 3 2 0 2 2 1 2 3 4 4 5 6 6 7 9 10 11 10 10 9 9 9 8 8 8 8 5 4 6 6 6 5 4 5 5 6 5 5 7 7 8
6 4 4 3 3 1 1 4 5 2 5 3 4 2 4 14 14 13 7 6 3 6 9 7 6 8 10 8 7 6 2 1 2 1 1 1 0 1 1 2 2 1 1 2 3 3 3 2 1 2 2 2 2 3 4 4 4 3 5 7 9 9 10 11 10 9 10 10 9 8 8 9 8 7 5 6 6 5 4 4 3 3 4 7 8 9
7 6 3 1 3 1 3 2 1 2 4 5 6 4 5 7 10 14 8 6 4 1 5 5 2 2 2 1 2 1 2 0 1 0 0 1 0 0 1 1 2 1 1 2 2 2 3 2 2 1 1 1 0 1 2 3 3 3 6 7 10 11 11 10 10 11 9 9 9 9 8 8 8 8 6 4 4 4 3 3 3 4 3 3 2 3
12 4 5 1 0 2 3 5 5 3 4 5 3 1 3 4 5 7 4 2 2 2 2 6 3 2 2 1 1 1 1 2 2 4 2 2 2 1 2 2 1 0 0 2 2 3 2 1 0 1 1 2 2 2 3 4 4 4 2 3 5 7 10 11 10 11 10 9 9 8 8 8 7 6 6 6 5 5 5 6 6 5 3 5 5 7
5 7 4 6 2 5 5 1 2 3 1 4 3 7 3 3 8 8 8 0 2 1 4 7 5 4 3 0 1 1 1 2 5 3 3 4 4 4 4 3 1 1 0 2 3 3 3 3 3 1 1 3 5 4 3 4 7 7 6 4 2 2 7 11 10 9 9 7 8 7 6 8 7 7 6 6 5 5 4 6 6 4 3 5 6 8
8 6 6 7 3 3 4 4 2 3 2 3 1 1 3 2 9 4 8 1 3 4 5 5 5 4 4 4 3 2 1 1 6 4 5 3 3 3 2 1 1 2 3 3 3 3 3 3 2 3 3 3 5 7 7 8 10 11 12 9 8 9 6 5 7 5 4 6 6 7 6 6 7 6 5 5 5 4 5 6 8 7 7 6 8 9
8 3 5 5 3 1 4 3 2 3 1 1 3 3 3 2 1 4 2 4 6 5 5 5 5 6 4 4 4 4 5 5 6 5 1 3 1 1 1 3 5 5 5 4 3 3 4 3 4 6 6 5 7 8 9 11 13 15 11 9 10 10 12 11 7 1 1 4 7 7 7 6 7 6 5 6 6 5 6 7 8 10 9 7 8 9
4 2 4 5 3 1 5 0 1 1 1 1 2 3 4 0 4 2 3 4 3 4 5 5 4 5 5 5 5 5 7 6 3 1 2 4 4 4 5 4 4 5 7 6 6 6 5 5 5 5 6 6 7 8 9 4 15 15 13 10 8 9 8 10 11 9 6 6 8 9 9 7 7 9 8 8 8 8 8 8 8 10 12 12 10 11
1 3 2 4 3 3 3 4 4 2 3 2 3 3 1 2 0 2 3 2 4 4 4 3 4 4 4 5 5 6 4 1 2 4 4 4 5 4 5 5 5 6 7 7 7 6 6 5 5 6 6 7 7 9 11 9 11 8 11 10 9 7 7 8 8 7 7 8 9 10 10 10 9 9 9 9 10 10 9 9 9 10 12 10 10 11
6 4 4 3 2 2 2 2 1 0 3 5 2 1 3 1 4 4 1 1 1 3 4 2 5 5 5 4 5 4 3 2 4 4 5 5 7 6 6 6 6 6 6 7 7 6 4 4 6 6 5 5 7 9 10 9 9 9 11 11 8 6 7 9 9 9 9 9 10 10 10 10 11 10 9 10 11 11 11 9 10 10 12 12 11 11
2 3 1 1 3 4 2 2 2 5 4 1 3 2 2 4 5 5 5 1 1 3 4 4 3 5 6 6 5 4 2 3 4 5 5 5 6 5 5 5 6 7 7 6 5 4 4 4 5 6 5 6 8 10 10 8 8 9 9 9 8 9 9 10 11 11 10 9 9 9 10 10 11 11 11 12 12 12 12 10 10 10 9 9 9 9
3 1 5 3 3 3 3 4 6 4 3 2 4 4 4 1 3 4 5 4 5 2 2 4 5 4 6 6 4 4 2 2 4 4 5 4 5 5 5 8 8 7 6 5 5 4 4 4 5 5 7 8 12 12 12 11 8 9 10 8 9 10 10 10 11 11 10 9 10 10 11 10 10 10 10 8 10 12 12 10 10 10 8 9 8 8
2 1 2 5 1 2 0 1 2 3 4 3 3 2 5 3 1 5 7 5 2 3 5 6 5 4 4 4 6 1 3 4 5 4 4 4 6 5 6 7 6 5 5 5 4 5 4 4 5 7 8 10 12 13 13 12 10 11 8 8 10 10 11 11 12 12 11 9 9 10 10 12 12 12 12 10 9 10 9 10 10 9 7 7 7 7
3 3 2 3 1 1 1 1 4 7 5 5 7 4 4 4 3 3 5 4 4 4 3 3 6 5 6 5 5 5 4 4 5 4 4 5 5 5 7 7 4 4 5 5 4 3 4 4 7 8 9 10 10 12 12 13 12 11 9 10 9 10 10 10 12 13 12 10 10 9 9 11 9 10 10 10 8 8 8 7 7 7 6 6 6 6
2 1 2 0 3 3 1 2 5 5 4 3 4 7 4 5 4 3 4 5 6 4 3 4 4 3 4 4 4 7 5 4 6 5 4 4 6 6 6 5 5 6 5 4 4 4 5 7 7 8 9 9 8 11 13 14 13 11 10 10 9 9 11 11 12 12 12 11 10 9 10 11 14 13 10 9 8 8 8 7 7 7 5 5 5 6
2 0 1 1 1 2 5 4 6 9 8 5 4 3 2 4 6 3 4 5 5 5 3 2 3 4 4 5 6 7 7 4 4 6 7 6 6 6 5 5 4 5 5 6 5 6 8 7 9 8 10 8 8 10 12 12 10 10 11 9 9 9 11 12 11 11 11 9 10 11 8 9 9 10 10 10 10 8 6 5 6 7 5 3 2 3
1 0 1 1 3 2 4 5 5 7 2 1 1 1 2 2 6 4 3 3 3 5 4 4 2 2 4 5 7 7 8 6 5 8 8 7 7 7 6 5 5 5 5 4 3 3 5 7 8 9 9 6 5 7 9 10 9 9 8 7 7 8 10 10 10 11 10 10 10 9 9 9 9 9 9 10 9 9 8 10 11 7 5 4 7 10
1 3 3 2 5 3 5 5 4 7 6 3 3 0 2 3 6 6 4 4 1 3 5 6 5 3 4 3 5 8 7 8 8 9 9 7 7 6 6 6 6 4 3 1 1 3 5 5 5 4 4 2 3 5 8 9 9 9 7 5 4 6 6 7 8 8 8 8 7 9 9 9 9 8 8 9 9 8 9 7 8 13 14 10 8 9
Wind_Direction
123 137 196 227 235 239 255 226 214 229 205 198 131 128 173 162 151 41 153 162 140 111 201 189 198 206 219 210 225 196 119 111 130 147 181 191 130 180 158 160 158 143 125 233 230 157 157 156 154 153 152 156 161 166 169 170 172 171 168 166 178 183 164 171 183 163 147 141 128 119 136 143 153 153 150 155 172 158 169 157 148 152 159 146 141 170
90 136 241 226 230 226 229 240 243 245 236 166 165 145 129 25 183 222 156 144 182 130 224 178 181 212 212 224 226 189 159 195 178 164 175 186 141 184 162 158 151 111 171 215 252 154 156 156 152 151 153 157 162 170 171 173 170 168 165 170 172 162 162 172 180 160 153 154 163 151 156 136 145 140 145 162 181 170 166 146 146 161 157 145 154 166
171 203 237 233 238 266 285 275 266 244 162 169 139 161 123 184 103 14 59 151 185 96 264 145 194 245 265 255 241 193 196 199 201 176 174 185 148 198 169 165 140 145 171 199 229 156 158 154 152 154 158 160 164 167 167 162 160 162 162 165 164 163 157 161 164 146 146 151 162 136 152 138 119 12 156 152 165 168 157 159 154 152 155 155 170 179
264 273 249 247 240 246 246 227 188 75 83 107 121 121 184 178 150 210 293 169 189 174 193 156 177 291 303 304 279 246 197 167 224 213 195 177 153 191 182 173 160 162 173 182 180 157 160 155 154 156 159 161 155 163 156 155 157 157 155 162 160 161 149 156 170 151 144 157 166 128 136 153 136 171 152 89 111 149 143 171 163 165 168 180 182 189
204 226 222 225 228 179 171 358 56 60 354 149 157 149 130 174 287 143 185 160 174 241 108 95 85 322 272 255 262 259 205 256 280 204 244 262 158 183 204 170 175 164 170 172 172 160 158 159 161 159 160 159 157 162 163 159 160 160 159 162 160 162 161 169 182 155 151 143 101 95 86 88 66 65 81 86 107 174 177 166 176 192 190 190 192 200
238 251 258 183 220 357 82 38 358 93 28 327 163 171 177 164 136 142 124 126 131 257 216 154 59 274 243 228 231 254 173 220 200 183 213 222 212 153 191 183 180 179 173 166 173 166 163 161 161 157 157 162 160 161 167 164 160 154 159 157 161 167 166 177 194 156 151 152 138 128 129 135 133 136 147 174 183 189 186 191 198 188 195 193 201 203
206 253 136 145 127 99 70 354 251 127 154 17 281 175 151 167 159 138 124 109 128 182 228 179 139 267 325 257 232 199 210 228 203 200 212 215 217 179 189 187 181 184 177 177 164 164 161 163 162 162 162 163 163 162 160 164 157 156 159 161 165 172 176 184 188 159 154 151 155 156 159 156 162 170 208 197 190 182 197 183 194 205 204 199 197 201
199 232 314 67 82 43 73 183 276 159 109 258 249 114 152 153 134 150 152 159 196 201 31 168 112 219 311 285 230 173 182 226 238 232 218 212 213 195 187 188 181 185 178 176 173 167 168 166 166 168 167 165 166 161 160 161 158 160 163 164 168 176 176 189 172 164 158 159 164 161 162 159 166 180 191 196 192 186 180 184 204 201 211 216 205 196
165 323 282 80 79 124 196 208 242 95 133 205 303 137 166 166 157 147 157 192 194 130 150 216 147 13 255 259 350 147 169 231 234 228 224 208 209 205 190 189 185 183 183 179 179 169 173 170 169 167 168 167 163 164 167 164 163 159 164 165 167 177 177 187 167 163 165 159 165 163 161 161 180 181 187 188 180 177 186 185 212 203 212 216 217 204
241 159 188 153 125 216 231 237 193 179 267 277 210 88 134 119 151 156 176 182 63 79 208 221 181 199 280 272 74 47 205 236 230 222 220 210 204 204 193 194 184 184 182 184 183 170 173 172 169 168 164 166 168 169 168 163 160 159 161 167 168 179 182 177 170 162 166 167 159 159 165 165 179 182 180 168 179 187 180 190 198 206 200 207 214 207
238 232 187 119 177 206 183 247 189 165 195 145 73 54 44 102 154 168 109 123 91 235 251 203 192 162 284 265 190 155 209 207 215 218 220 213 211 209 200 189 185 181 183 185 184 175 170 172 167 163 168 169 168 168 170 166 168 167 167 169 171 179 182 175 171 165 172 178 165 170 172 176 178 179 172 171 186 183 185 191 200 201 200 200 212 203
260 254 284 236 169 76 124 270 317 82 207 107 54 93 27 337 60 65 318 66 141 281 273 279 188 147 179 297 288 241 264 209 181 193 196 200 203 204 200 191 188 180 183 186 184 178 168 164 170 167 168 170 171 169 172 171 170 173 174 171 171 178 185 179 174 170 176 183 175 181 176 186 183 172 175 179 181 185 188 190 195 200 188 208 222 229
295 200 245 211 194 165 102 67 310 3 14 50 47 38 90 268 24 316 9 228 198 206 280 80 111 40 271 215 262 282 239 235 212 208 201 197 194 195 196 190 184 183 181 183 184 179 177 168 171 174 172 172 172 175 175 172 173 174 176 175 173 184 188 183 175 177 182 186 188 186 189 186 184 173 175 176 176 181 182 187 190 181 199 203 214 227
290 34 66 140 311 149 123 124 298 15 341 46 117 109 79 57 42 256 279 213 328 267 274 45 46 108 256 298 294 308 298 223 200 210 207 192 191 190 192 188 180 182 182 183 182 181 183 176 172 175 174 176 177 178 176 172 172 175 178 177 180 183 189 182 180 179 184 194 198 188 190 186 177 176 176 173 172 181 182 183 190 189 194 197 205 207
50 33 279 145 278 222 132 148 172 163 103 125 131 118 168 135 154 215 226 125 223 220 277 327 64 228 96 240 321 304 303 305 303 234 197 191 188 191 189 187 179 179 180 180 182 183 183 184 172 175 175 178 179 180 176 172 173 174 177 179 181 179 189 184 185 182 186 193 204 194 194 184 192 172 180 176 179 174 179 190 195 200 197 198 209 205
25 220 240 204 238 144 164 207 139 102 54 334 124 94 72 181 152 131 205 155 196 159 32 347 194 171 163 229 304 315 316 4 359 7 78 150 152 156 171 187 189 182 178 178 182 184 186 188 177 173 177 179 179 181 174 174 172 176 179 181 183 182 184 186 185 188 187 193 201 196 192 191 196 181 171 176 184 184 184 187 192 203 207 207 202 208
10 53 270 295 23 153 201 203 351 116 134 242 55 39 202 180 111 100 3 323 38 48 235 186 18 322 315 340 5 4 7 351 360 47 94 123 117 154 182 187 190 176 165 181 180 183 188 188 184 177 174 179 181 180 175 175 175 177 177 181 183 183 182 187 190 188 187 188 196 205 197 189 193 188 180 183 189 193 196 193 197 198 210 212 210 213
138 250 280 60 236 261 317 113 102 130 138 73 95 217 223 76 115 118 185 324 58 131 251 131 185 265 42 270 340 13 12 343 353 319 259 214 139 171 193 194 185 149 130 184 173 149 128 144 259 189 175 175 181 182 175 176 177 179 177 180 181 181 182 189 190 189 190 188 195 203 203 197 195 195 190 187 194 196 197 209 208 208 211 215 214 212
106 10 301 6 16 261 281 54 43 353 28 141 180 189 95 289 9 320 90 14 23 331 274 349 206 250 158 282 352 342 358 341 334 357 2 304 205 189 191 208 203 120 118 81 171 144 158 183 212 234 190 177 175 182 175 176 176 177 180 181 180 182 185 185 188 190 190 191 194 199 203 200 198 202 195 194 196 192 199 210 211 212 211 216 219 216
51 151 302 326 15 297 31 64 119 325 353 30 73 45 95 100 149 92 166 180 114 243 48 268 40 212 241 226 276 295 310 312 350 4 355 348 350 318 269 216 211 169 149 161 188 176 172 181 196 220 222 181 168 179 172 175 177 179 181 181 184 185 182 180 186 188 191 192 194 197 199 204 203 199 200 200 198 205 207 212 210 213 214 218 215 215
80 110 280 270 320 45 20 259 197 165 121 37 44 16 15 39 220 113 27 94 152 170 176 183 330 281 256 224 218 282 315 306 100 323 323 346 347 357 2 340 299 245 159 185 170 183 181 184 186 191 219 238 181 172 166 177 179 182 182 184 184 183 184 183 185 185 192 188 195 195 196 203 203 205 203 203 205 212 220 219 218 211 210 212 218 214
71 20 248 323 23 355 282 248 138 134 146 150 146 161 165 129 86 103 265 350 51 96 197 117 241 261 266 195 202 221 223 205 178 129 317 315 336 349 342 335 330 318 263 185 191 171 185 177 166 165 180 200 243 172 168 177 179 180 184 185 184 184 183 186 186 185 187 190 193 197 197 200 199 204 205 207 208 212 217 221 219 221 217 209 217 213
141 150 88 31 171 237 269 342 139 127 110 149 132 165 141 105 101 100 117 254 18 244 132 154 124 276 236 206 220 227 202 215 156 139 85 303 329 331 324 309 309 298 295 260 200 189 138 358 180 165 179 169 188 240 175 175 179 182 184 183 185 181 186 186 186 184 182 186 190 197 198 197 199 200 204 209 214 217 217 218 219 217 222 224 224 216
80 64 29 311 313 310 328 296 80 125 107 48 30 96 104 133 169 162 173 188 133 127 54 9 181 247 275 226 243 298 268 260 177 142 147 251 252 258 282 308 319 333 334 351 60 3 346 51 303 197 168 179 177 226 209 179 178 179 181 185 183 185 185 185 184 181 181 185 191 195 195 197 199 201 206 210 213 217 218 216 216 209 211 218 223 219
70 302 117 14 2 338 347 347 1 340 42 100 167 219 147 119 90 131 103 60 88 225 163 113 243 285 274 261 348 306 287 272 260 174 144 186 295 283 275 246 201 20 6 17 75 163 191 236 251 233 185 180 185 202 227 189 179 178 183 182 184 186 184 183 181 180 185 185 190 195 196 201 200 202 206 212 215 219 212 210 213 211 210 206 213 214
95 178 93 117 127 132 174 349 268 305 258 256 146 211 136 123 137 108 128 174 112 264 122 134 252 252 271 283 339 301 295 308 302 320 21 63 10 338 342 333 314 128 34 10 48 116 179 223 258 274 229 188 191 194 217 220 181 180 182 184 182 180 180 183 179 181 183 186 192 195 198 201 202 204 206 208 212 216 218 214 207 208 213 215 219 221
146 181 125 153 154 177 205 215 248 128 1 319 244 188 186 159 139 111 99 95 181 207 182 224 183 253 304 289 280 271 246 257 307 348 47 50 327 298 302 281 245 258 180 132 119 105 121 153 229 313 307 270 193 179 171 206 247 191 181 182 182 181 179 180 181 182 183 188 192 194 200 200 202 203 204 206 208 210 211 214 218 216 219 218 221 177
73 42 266 149 177 193 194 211 235 234 236 256 236 211 190 152 155 137 146 203 173 106 255 263 194 172 250 259 256 250 266 291 284 250 221 204 198 226 248 281 300 304 305 103 93 86 109 140 137 202 308 323 302 170 142 143 133 113 113 139 185 189 180 179 183 181 185 188 191 196 200 201 198 199 201 203 205 207 210 215 224 223 223 219 173 139
140 142 264 142 270 232 208 217 235 277 267 267 301 204 182 173 166 160 205 180 143 154 198 232 169 186 241 224 231 219 211 221 228 230 212 225 252 263 324 309 309 309 321 352 41 83 80 359 192 178 172 235 305 272 163 143 139 131 130 131 119 75 6 226 186 182 187 187 193 197 198 199 196 193 194 198 201 207 212 216 222 223 222 197 159 147
93 222 226 184 204 307 306 326 352 339 318 324 316 228 181 170 185 186 185 167 168 191 205 168 174 196 241 270 180 184 179 187 224 255 280 185 244 239 176 262 305 297 281 246 144 134 130 115 18 70 140 135 119 321 303 161 144 147 147 149 135 114 93 85 27 222 190 188 195 196 197 195 193 191 194 195 199 208 211 211 214 211 203 158 166 161
102 260 190 151 179 299 304 327 340 359 355 342 324 271 192 192 192 225 132 169 185 38 67 132 148 215 298 283 179 211 194 196 341 276 234 222 225 171 159 166 273 286 282 275 188 155 145 149 151 160 201 151 140 166 299 293 180 149 144 148 154 144 123 85 81 67 40 97 50 238 197 185 185 182 186 191 196 203 213 201 190 171 147 152 175 176
87 224 55 70 61 323 307 351 332 354 3 41 343 351 30 151 135 245 112 172 125 197 121 110 130 232 232 223 189 163 170 204 226 238 244 246 277 90 117 253 278 272 280 292 302 120 141 143 160 175 168 160 173 178 184 224 236 170 158 150 146 144 130 115 111 109 113 139 131 104 127 142 130 115 124 174 180 190 197 179 173 155 143 141 149 153
158 132 97 82 85 232 264 116 40 14 29 7 319 254 60 61 91 66 38 27 146 142 119 148 221 214 178 190 144 222 215 237 250 255 312 345 317 289 249 228 267 282 297 310 318 357 85 131 167 187 200 183 185 218 206 200 200 197 171 158 156 149 146 139 140 143 148 158 150 140 140 172 138 141 134 129 216 168 175 177 175 159 148 150 156 153
93 109 146 140 128 236 303 353 45 48 23 249 231 186 196 143 116 88 51 40 341 69 176 177 177 173 153 179 182 202 214 225 232 268 203 236 301 302 305 268 247 274 315 320 319 317 317 63 120 143 182 229 255 232 220 211 218 208 186 169 160 159 155 144 153 153 159 160 159 153 150 169 164 161 164 160 179 188 179 175 182 172 155 143 151 157
158 114 163 164 107 216 335 24 38 318 234 240 286 25 59 105 94 89 70 29 15 80 95 97 124 156 180 193 198 211 202 15 4 100 297 305 212 276 310 335 342 356 325 317 320 329 332 318 333 10 52 61 32 314 297 265 238 238 195 179 170 164 154 154 154 166 168 169 169 157 158 163 169 171 167 166 169 173 167 168 167 163 158 157 161 163
162 139 166 83 132 54 57 64 90 241 239 286 302 177 134 112 109 88 49 19 4 287 136 132 155 142 177 261 304 7 93 322 10 344 194 257 44 270 342 305 301 309 330 311 324 308 314 329 337 318 282 211 175 218 243 265 287 269 220 204 185 174 162 154 165 169 171 175 172 167 161 161 159 152 142 123 113 119 122 132 131 122 118 119 111 72
155 116 123 138 186 160 190 147 203 295 347 341 10 11 171 161 173 131 128 320 296 250 180 143 162 194 201 252 11 23 24 26 345 302 275 219 263 250 224 251 234 293 274 309 348 343 319 294 220 266 303 294 244 212 213 231 222 226 283 283 245 175 158 167 177 177 178 174 171 162 153 151 147 130 122 129 131 129 119 114 93 66 59 93 79 85
144 163 223 125 251 118 128 61 358 27 290 275 259 291 331 140 120 132 99 278 319 224 169 139 174 199 210 131 175 239 34 17 309 287 252 243 218 235 250 235 192 160 332 345 342 341 1 23 21 9 317 298 296 272 243 231 215 195 166 167 194 227 176 173 181 199 192 166 156 144 142 140 138 134 131 133 139 138 126 108 94 85 41 33 51 66
37 78 125 131 152 65 67 119 180 149 239 216 257 309 350 73 127 102 70 332 263 204 203 154 175 209 193 172 182 104 93 280 259 243 247 215 226 260 272 299 46 50 23 3 343 7 14 29 25 351 335 322 311 292 278 255 218 195 183 169 164 173 179 184 180 190 197 148 137 134 136 130 122 124 126 121 123 125 113 101 102 90 77 70 66 70
71 33 62 42 55 113 134 101 191 198 162 275 272 299 282 271 23 60 11 276 246 210 191 161 177 196 208 182 157 152 161 234 264 261 224 157 163 338 34 28 23 13 14 12 10 37 39 29 28 19 5 330 306 278 272 253 205 185 177 160 149 160 159 161 159 76 102 118 110 103 103 109 111 105 101 94 82 78 97 107 103 107 110 97 90 86
75 40 69 144 159 113 101 281 344 319 262 213 244 273 299 138 74 91 200 238 235 174 196 173 181 183 168 165 170 183 227 202 215 228 86 78 52 42 45 38 36 30 22 27 45 48 42 28 22 10 352 329 315 311 327 255 173 165 156 146 145 147 150 141 138 143 153 123 105 99 92 84 90 91 81 82 79 69 69 74 89 97 101 101 97 97
25 91 340 73 111 156 178 130 212 224 232 200 257 253 298 53 326 205 235 198 140 177 224 162 155 190 167 187 195 217 232 234 65 63 56 48 70 71 68 47 35 41 42 47 52 42 41 29 24 16 2 354 343 352 11 19 103 124 127 128 118 113 120 117 115 121 111 98 95 92 91 93 92 93 98 97 96 91 90 89 94 98 100 100 106 106
196 125 191 172 210 63 64 104 44 162 271 176 195 6 25 117 228 210 189 39 136 176 147 153 163 194 164 213 226 205 204 80 75 80 73 76 74 64 70 65 44 46 41 33 36 32 40 41 37 30 14 6 11 18 27 23 78 89 102 104 108 107 113 112 115 109 104 100 94 96 97 97 98 94 91 86 86 91 87 87 87 88 94 98 101 102
212 92 234 254 172 158 141 140 183 212 214 218 107 170 233 190 186 174 131 113 55 128 149 143 182 186 184 179 191 193 162 109 91 100 91 84 84 81 84 71 58 61 54 43 38 23 25 45 38 34 23 32 42 35 31 31 53 72 78 88 100 97 97 100 101 99 88 86 92 97 94 93 91 90 92 100 104 102 101 96 95 92 95 100 103 104
231 171 178 166 227 137 198 206 235 210 180 214 144 178 169 182 130 168 153 152 143 204 173 146 188 200 186 177 179 155 123 134 130 127 112 108 99 96 84 76 80 77 69 54 44 24 24 41 52 48 40 37 54 50 43 29 46 76 84 85 92 97 100 100 100 99 102 104 102 95 96 93 92 91 89 87 97 99 99 99 99 97 97 98 97 101
282 215 172 91 230 266 347 169 164 98 120 87 56 124 129 103 66 130 135 124 209 194 173 176 197 190 184 170 146 161 142 139 116 107 105 105 106 105 98 89 81 81 65 45 32 29 31 35 51 49 50 46 53 60 53 40 30 45 37 66 88 95 100 105 104 101 98 94 89 93 97 97 94 90 87 82 81 87 95 105 103 106 108 106 109 112
320 347 29 115 221 110 251 326 118 134 109 113 104 79 95 127 152 138 139 148 171 177 187 205 176 183 175 174 167 149 136 127 117 119 122 120 102 83 85 90 80 76 66 47 14 27 46 68 66 58 52 53 51 60 62 56 42 39 49 61 69 85 90 93 93 89 82 76 79 77 80 80 79 79 74 73 74 76 79 83 92 95 99 99 102 107
315 153 56 12 122 128 211 92 55 54 74 69 101 119 111 110 99 130 161 168 167 162 155 176 147 136 150 158 146 130 134 133 129 134 122 107 100 97 97 100 96 73 59 62 60 61 65 62 73 75 72 64 55 69 69 62 49 38 40 50 59 75 84 83 83 84 85 83 82 75 75 80 79 78 75 67 69 73 72 67 67 79 77 91 109 111
211 50 224 214 85 20 58 65 93 72 45 32 41 57 140 135 109 110 140 144 144 130 126 146 173 168 161 156 134 129 126 140 139 134 122 110 104 106 108 104 95 104 106 93 75 74 77 83 83 79 77 69 68 74 74 68 60 53 47 47 52 64 77 80 80 84 85 85 83 83 81 81 84 87 87 83 72 60 46 59 82 94 86 28 332 109
57 17 260 56 65 125 167 198 152 112 152 203 5 94 78 94 106 116 132 124 142 137 153 149 129 118 129 143 140 135 133 138 137 127 122 118 123 124 122 116 122 124 118 114 107 79 85 87 94 93 89 82 67 70 76 75 69 65 56 46 58 63 80 88 89 89 89 89 90 97 95 95 92 91 91 92 92 89 76 58 56 41 87 88 27 51
161 212 124 148 152 217 239 231 187 138 132 188 174 150 86 115 105 112 133 150 151 155 165 142 132 115 125 127 139 132 136 137 134 121 117 124 129 136 131 132 132 133 141 102 65 81 104 113 110 107 98 84 70 82 85 91 97 103 101 85 74 90 89 92 96 94 96 97 101 105 105 102 100 98 98 101 102 103 104 95 57 52 50 53 49 59